Location: *
(55.6049°S, 142.1985°W)
Time: 23:17:50
(UTC+00:00)

CZ-4C R/B - Pass Details

Date: 12 May 2021
Orbit: 609 x 1393 km, 63.4° (Epoch: 18 June)

Event Time Altitude Azimuth Distance (km) Brightness Sun altitude
Exits shadow 13:06:52 47° 167° (SSE) 1,335 3.3 -34.3°
Drops below altitude 10° 13:11:38 10° 125° (SE) 2,600 5.5 -33.6°
Sets 13:14:00 0° 119° (ESE) 3,431 6.4 -33.3°
